Location: Peebles
(55.6412°N, 3.1714°W)
Time: 14:17:03
(UTC+01:00)

FLOCK 4S 19 - Pass Details

Date: 04 July 2022
Orbit: 507 x 523 km, 97.4° (Epoch: 16 August)

Event Time Altitude Azimuth Distance (km) Brightness Sun altitude
Rises 23:04:41 0° 204° (SSW) 2,652 ? -6.6°
Reaches altitude 10° 23:07:15 10° 223° (SW) 1,769 ? -6.8°
Maximum altitude 23:10:02 19° 270° (W) 1,293 ? -7.0°
Drops below altitude 10° 23:12:51 10° 317° (NW) 1,778 ? -7.2°
Sets 23:15:27 0° 335° (NNW) 2,671 ? -7.4°
